When you browse on this site, cookies collect data to enhance your experience and personalize the content and advertising you see.
Visit our Privacy Policy to learn more. By continuing to use the site, you agree to this use of cookies and data.
  • En Estados Unidos
  • Lista de países
  • Para 7 días
  • Temperatura del agua
  • Mapa Satelital
  • El tiempo en el mapa
  • Informadores
  • user-avatar
    Iniciar sesión

    Tiempo cada hora Benguela

    Hoy, 11 Diciembre, Martes

    Tiempo Temperatura Precipitaciones Viento Presión Humedad
    00:00 +26°C° 0 mm 2 mps 761 mmHg 87%
    01:00 +26°C° 0 mm 2 mps 761 mmHg 87%
    02:00 +26°C° 0 mm 2 mps 761 mmHg 88%
    03:00 +26°C° 0 mm 2 mps 761 mmHg 88%
    04:00 +26°C° 0 mm 1 mps 760 mmHg 89%
    05:00 +26°C° 0 mm 1 mps 761 mmHg 86%
    06:00 +27°C° 0 mm 1 mps 761 mmHg 84%
    07:00 +27°C° 0 mm 1 mps 761 mmHg 81%
    08:00 +29°C° 0 mm 2 mps 761 mmHg 73%
    09:00 +31°C° 0 mm 2 mps 761 mmHg 65%
    10:00 +34°C° 0 mm 2 mps 761 mmHg 57%
    11:00 +34°C° 0 mm 3 mps 761 mmHg 56%
    12:00 +35°C° 0 mm 4 mps 760 mmHg 56%
    13:00 +35°C° 0 mm 4 mps 759 mmHg 55%
    14:00 +34°C° 0 mm 4 mps 759 mmHg 57%
    15:00 +34°C° 0 mm 4 mps 759 mmHg 60%
    16:00 +33°C° 0 mm 4 mps 758 mmHg 62%
    17:00 +32°C° 0 mm 4 mps 759 mmHg 68%
    18:00 +29°C° 0 mm 4 mps 759 mmHg 74%
    19:00 +28°C° 0 mm 3 mps 760 mmHg 79%
    20:00 +28°C° 0 mm 3 mps 760 mmHg 81%
    21:00 +27°C° 0 mm 3 mps 761 mmHg 82%
    22:00 +27°C° 0 mm 3 mps 761 mmHg 83%
    23:00 +27°C° 0 mm 3 mps 761 mmHg 83%

    Mañana, 12 Diciembre, Miércoles

    Tiempo Temperatura Precipitaciones Viento Presión Humedad
    00:00 +27°C° 0 mm 3 mps 761 mmHg 83%
    01:00 +27°C° 0 mm 3 mps 760 mmHg 83%
    02:00 +27°C° 0 mm 3 mps 760 mmHg 83%
    03:00 +27°C° 0 mm 2 mps 759 mmHg 83%
    04:00 +27°C° 0 mm 2 mps 759 mmHg 84%
    05:00 +27°C° 0 mm 2 mps 759 mmHg 82%
    06:00 +27°C° 0 mm 2 mps 760 mmHg 80%
    07:00 +28°C° 0 mm 2 mps 760 mmHg 78%
    08:00 +30°C° 0 mm 2 mps 760 mmHg 71%
    09:00 +31°C° 0 mm 2 mps 760 mmHg 64%
    10:00 +34°C° 0 mm 3 mps 760 mmHg 56%
    11:00 +34°C° 0 mm 3 mps 760 mmHg 57%
    12:00 +35°C° 0 mm 3 mps 759 mmHg 57%
    13:00 +35°C° 0 mm 4 mps 759 mmHg 57%
    14:00 +34°C° 0 mm 4 mps 758 mmHg 60%
    15:00 +34°C° 0 mm 4 mps 758 mmHg 62%
    16:00 +33°C° 0 mm 4 mps 757 mmHg 65%
    17:00 +32°C° 0 mm 4 mps 758 mmHg 70%
    18:00 +29°C° 0 mm 4 mps 759 mmHg 75%
    19:00 +28°C° 0 mm 3 mps 759 mmHg 81%
    20:00 +27°C° 0 mm 3 mps 760 mmHg 81%
    21:00 +27°C° 0 mm 3 mps 761 mmHg 82%
    22:00 +27°C° 0 mm 3 mps 761 mmHg 83%
    23:00 +27°C° 0 mm 2 mps 761 mmHg 84%

    Pasado mañana, 13 Diciembre, Jueves

    Tiempo Temperatura Precipitaciones Viento Presión Humedad
    00:00 +26°C° 0 mm 2 mps 761 mmHg 85%
    01:00 +26°C° 0 mm 2 mps 760 mmHg 86%
    02:00 +26°C° 0 mm 1 mps 760 mmHg 87%
    03:00 +25°C° 0 mm 1 mps 760 mmHg 88%
    04:00 +25°C° 0 mm 1 mps 760 mmHg 89%
    05:00 +26°C° 0 mm 1 mps 760 mmHg 86%
    06:00 +26°C° 0 mm 1 mps 761 mmHg 84%
    07:00 +27°C° 0 mm 1 mps 761 mmHg 81%
    08:00 +29°C° 0 mm 2 mps 761 mmHg 72%
    09:00 +31°C° 0 mm 2 mps 761 mmHg 62%
    10:00 +34°C° 0 mm 3 mps 761 mmHg 53%
    11:00 +34°C° 0 mm 3 mps 760 mmHg 53%
    12:00 +35°C° 0 mm 4 mps 759 mmHg 54%
    13:00 +35°C° 0 mm 4 mps 759 mmHg 54%
    14:00 +34°C° 0 mm 4 mps 758 mmHg 57%
    15:00 +33°C° 0 mm 4 mps 758 mmHg 60%
    16:00 +33°C° 0 mm 4 mps 757 mmHg 63%
    17:00 +30°C° 0 mm 4 mps 758 mmHg 68%
    18:00 +29°C° 0 mm 3 mps 759 mmHg 74%
    19:00 +27°C° 0 mm 3 mps 759 mmHg 79%
    20:00 +27°C° 0 mm 3 mps 760 mmHg 81%
    21:00 +27°C° 0 mm 2 mps 761 mmHg 82%
    22:00 +26°C° 0 mm 2 mps 761 mmHg 84%
    23:00 +26°C° 0 mm 2 mps 761 mmHg 84%

    14 Diciembre, Viernes

    Tiempo Temperatura Precipitaciones Viento Presión Humedad
    00:00 +26°C° 0 mm 2 mps 761 mmHg 84%
    01:00 +26°C° 0 mm 1 mps 760 mmHg 84%
    02:00 +26°C° 0 mm 1 mps 760 mmHg 84%
    03:00 +26°C° 0 mm 1 mps 760 mmHg 83%
    04:00 +26°C° 0 mm 1 mps 760 mmHg 83%
    05:00 +26°C° 0 mm 1 mps 760 mmHg 82%
    06:00 +27°C° 0 mm 1 mps 761 mmHg 81%
    07:00 +27°C° 0 mm 1 mps 761 mmHg 79%
    08:00 +28°C° 0 mm 1 mps 761 mmHg 71%
    09:00 +30°C° 0 mm 1 mps 761 mmHg 64%
    10:00 +32°C° 0 mm 1 mps 761 mmHg 56%
    11:00 +32°C° 0 mm 2 mps 760 mmHg 54%
    12:00 +34°C° 0 mm 3 mps 759 mmHg 53%
    13:00 +34°C° 0 mm 3 mps 758 mmHg 51%
    14:00 +34°C° 0 mm 3 mps 758 mmHg 54%
    15:00 +33°C° 0 mm 3 mps 758 mmHg 57%
    16:00 +32°C° 0 mm 4 mps 757 mmHg 60%
    17:00 +30°C° 0 mm 3 mps 758 mmHg 65%
    18:00 +29°C° 0 mm 3 mps 759 mmHg 71%
    19:00 +27°C° 0 mm 3 mps 759 mmHg 77%
    20:00 +27°C° 0 mm 2 mps 760 mmHg 78%
    21:00 +26°C° 0 mm 2 mps 760 mmHg 80%
    22:00 +26°C° 0 mm 2 mps 761 mmHg 82%
    23:00 +26°C° 0 mm 1 mps 760 mmHg 83%

    15 Diciembre, Sábado

    Tiempo Temperatura Precipitaciones Viento Presión Humedad
    00:00 +26°C° 0 mm 1 mps 760 mmHg 84%
    01:00 +25°C° 0 mm 1 mps 760 mmHg 85%
    02:00 +25°C° 0 mm 1 mps 760 mmHg 86%
    03:00 +25°C° 0 mm 1 mps 760 mmHg 87%
    04:00 +23°C° 0 mm 0 mps 760 mmHg 88%
    05:00 +24°C° 0 mm 0 mps 760 mmHg 86%
    06:00 +26°C° 0 mm 1 mps 761 mmHg 84%
    07:00 +27°C° 0 mm 1 mps 761 mmHg 81%
    08:00 +29°C° 0 mm 1 mps 761 mmHg 72%
    09:00 +30°C° 0 mm 1 mps 761 mmHg 63%
    10:00 +32°C° 0 mm 2 mps 761 mmHg 53%
    11:00 +34°C° 0 mm 2 mps 760 mmHg 50%
    12:00 +35°C° 0 mm 3 mps 759 mmHg 47%
    13:00 +36°C° 0 mm 3 mps 758 mmHg 45%
    14:00 +35°C° 0 mm 3 mps 758 mmHg 47%
    15:00 +34°C° 0 mm 3 mps 758 mmHg 49%
    16:00 +34°C° 0 mm 4 mps 757 mmHg 51%
    17:00 +31°C° 0.1 mm 3 mps 758 mmHg 59%
    18:00 +29°C° 0.1 mm 2 mps 759 mmHg 66%
    19:00 +28°C° 0.1 mm 2 mps 759 mmHg 74%
    20:00 +27°C° 0.1 mm 2 mps 760 mmHg 76%
    21:00 +27°C° 0.1 mm 1 mps 760 mmHg 78%
    22:00 +27°C° 0.1 mm 1 mps 760 mmHg 80%
    23:00 +27°C° 0.2 mm 1 mps 760 mmHg 81%

    16 Diciembre, Domingo

    Tiempo Temperatura Precipitaciones Viento Presión Humedad
    00:00 +27°C° 0.2 mm 1 mps 760 mmHg 82%
    01:00 +26°C° 0.2 mm 1 mps 759 mmHg 83%
    02:00 +26°C° 0.2 mm 1 mps 759 mmHg 83%
    03:00 +26°C° 0.2 mm 1 mps 759 mmHg 83%
    04:00 +26°C° 0.2 mm 1 mps 759 mmHg 82%
    05:00 +27°C° 0 mm 1 mps 759 mmHg 80%
    06:00 +27°C° 0 mm 1 mps 760 mmHg 79%
    07:00 +28°C° 0 mm 1 mps 760 mmHg 77%
    08:00 +30°C° 0 mm 1 mps 760 mmHg 68%
    09:00 +32°C° 0 mm 2 mps 760 mmHg 58%
    10:00 +35°C° 0 mm 2 mps 760 mmHg 49%
    11:00 +35°C° 0 mm 3 mps 759 mmHg 48%
    12:00 +36°C° 0 mm 3 mps 759 mmHg 47%
    13:00 +36°C° 0 mm 4 mps 758 mmHg 46%
    14:00 +35°C° 0 mm 4 mps 758 mmHg 50%
    15:00 +35°C° 0 mm 4 mps 757 mmHg 53%
    16:00 +34°C° 0 mm 4 mps 757 mmHg 57%
    17:00 +31°C° 0 mm 3 mps 758 mmHg 63%
    18:00 +30°C° 0 mm 2 mps 758 mmHg 69%
    19:00 +28°C° 0 mm 2 mps 759 mmHg 75%
    20:00 +28°C° 0 mm 2 mps 759 mmHg 77%
    21:00 +28°C° 0 mm 1 mps 760 mmHg 80%
    22:00 +27°C° 0 mm 1 mps 760 mmHg 82%
    23:00 +27°C° 0 mm 1 mps 760 mmHg 83%
    Mostrar más